Terug naar catalogus

COSMOS 1275 DEB

ActiefPO
NORAD 42183·DEBRIS·🇷🇺 Russia

Gelanceerd Jun 4, 1981 vanaf Plesetsk Cosmodrome

Loading…

Volgende Passages (komende 24 uur)

TLE

VersSource: Space-Track

Epoch: Sep 14, 2026, 23:07 UTC

1 42183U 81053SX  26257.96347409  .00000703  00000-0  57549-3 0  9992
2 42183  82.9358 141.4518 0046838 181.5619 193.8197 13.87674169627071

Volg COSMOS 1275 DEB in realtime met AllMySat

Download on the App Store